Regional Weather Roundup
Issued by NWS

Home | Current Version | Previous Version | Text Only | Print | Product List | Glossary Off
Versions: 1 2 3 4 5 6 7 8 9 10 11 12 13 14 15 16 17 18 19 20 21 22 23 24 25 26 27 28 29 30 31 32 33 34 35 36 37 38 39 40 41 42 43 44 45 46 47 48 49 50

000
ASUS45 KBOU 190407
RWRCO

WEATHER ROUNDUP FOR COLORADO
NATIONAL WEATHER SERVICE DENVER/BOULDER CO
900 PM MST THU DEC 18 2014

NOTE: "FAIR" INDICATES FEW OR NO CLOUDS BELOW 12000 FEET WITH NO
SIGNIFICANT WEATHER AND/OR OBSTRUCTIONS TO VISIBILITY.

COZ001>005-013-030-031-190500-
...NORTHWEST COLORADO...

CITY           SKY/WX    TMP DP  RH WIND       PRES   REMARKS
CRAIG          FOG       19  15  84 CALM      30.19R VSB 1/4
HAYDEN         MOCLDY    18  14  86 E6        30.15S WCI   9
MEEKER         CLOUDY    19  16  88 NE5       30.18R WCI  12
MOUNT WERNER   NOT AVBL
STEAMBOAT SPGS MOCLDY    18  17  97 CALM      30.16R VSB 3/4
WALDEN         MOCLDY     5   0  78 SE6       30.11S WCI  -6
$$

COZ006>008-011-190500-
...WEST CENTRAL VALLEYS...

CITY           SKY/WX    TMP DP  RH WIND       PRES   REMARKS
GRAND JUNCTION PTCLDY    29  27  92 CALM      30.18R
MONTROSE       CLOUDY    34  30  85 CALM      30.20R
EAGLE          FLURRIES  28  27  93 CALM      30.18R
RIFLE          CLOUDY    34  30  85 S3        30.18R
DELTA          CLOUDY    35  31  88 CALM      30.19R
NUCLA          PTCLDY    30  30 100 E5        30.21S WCI  25
$$

COZ017>023-064>068-190500-
...SOUTHWEST COLORADO...

CITY           SKY/WX    TMP DP  RH WIND       PRES   REMARKS
DURANGO        CLOUDY    28  25  88 N3        30.14R
CORTEZ         CLEAR     28  25  88 NE5       30.17S WCI  23
PAGOSA SPRINGS CLOUDY    26  25  95 CALM      30.14S
TELLURIDE      CLOUDY    22  20  89 CALM      30.16S
WOLF CREEK PAS MOCLDY     9   9 100 MISG      30.09R FOG
$$

COZ009-010-012-014-032>034-037-058>063-190500-
...CENTRAL COLORADO...

CITY           SKY/WX    TMP DP  RH WIND       PRES   REMARKS
ASPEN          LGT SNOW  26  24  92 NW3       30.13R FOG
BUENA VISTA    PTCLDY    25  15  67 NW10      30.09R WCI  14
COPPER MTN     CLOUDY    14   9  79 W16       30.07S WCI  -2
BERTHOUD PASS  CLOUDY     7   1  78 MISG      30.05S
COTTONWOOD PAS PTCLDY    25  14  63 NW7G17    30.07S WCI  17
GUNNISON       PTCLDY    18  10  73 N6        30.16R WCI   9
KREMMLING      FLURRIES  12  10  92 CALM      30.17R
LEADVILLE      PTCLDY     7   3  84 NE7       30.08S WCI  -5
MONARCH PASS   CLOUDY    12  10  92 MISG      30.16F
SALIDA         PTCLDY    28  18  65 W10       30.17R WCI  19
SUNLIGHT       LGT SNOW N/A N/A N/A CALM      30.13S
WILKERSON PASS MOCLDY    14   9  79 N7        30.09R WCI   4
$$

COZ069>075-190500-
...SAN LUIS VALLEY/SANGRE DE CRISTO MOUNTAINS...

CITY           SKY/WX    TMP DP  RH WIND       PRES   REMARKS
ALAMOSA        PTCLDY    15  13  91 E7        30.12R WCI   5
LA VETA PASS   MOCLDY    16  14  93 MISG      30.07S
SAGUACHE       CLOUDY    25  21  86 SE3       30.12S
$$

COZ035-036-038>040-190500-
...NORTHERN COLORADO FRONT RANGE...

CITY           SKY/WX    TMP DP  RH WIND       PRES   REMARKS
DENVER INTL AP PTCLDY    28  25  88 SW8       30.07R WCI  20
DMNS CITY PARK   N/A     31  27  86 S1        30.07S
AURORA         MOCLDY    29  29  99 SW3       30.08S
FRONT RANGE AP NOT AVBL
ERIE MUNI ARPT   N/A     24  22  92 CALM      30.08S
BOULDER MUN AP PTCLDY    32  27  80 N3        30.07S
CENTENNIAL     PTCLDY    29  25  85 SW3       30.07S
BROOMFIELD     MOCLDY    32  25  74 CALM      30.07S
FORT COLLINS   PTCLDY    27  21  80 E3        30.10R
LONGMONT       PTCLDY    29  24  82 E3        30.10S
$$

COZ041-046-047-076>085-087-088-190500-
...PIKES PEAK/PALMER DIVIDE AND SOUTHERN FOOTHILLS...

CITY           SKY/WX    TMP DP  RH WIND       PRES   REMARKS
COLO. SPRINGS  MOCLDY    31  21  66 CALM      30.11R
A. F. ACADEMY  PTCLDY    30  20  66 S3        30.09R
ELLICOTT       NOT AVBL
FALCON         CLOUDY    28  19  71 SW3       30.10R
FORT CARSON    CLOUDY    30  22  74 W3        30.09S
LIMON          CLEAR     18  16  92 N3        30.09S
MONUMENT HILL  MOCLDY    28  27  93 SW8       30.07S WCI  20
TRINIDAD       CLOUDY    34  26  72 NW10      30.06S WCI  26
$$

COZ042>045-048>051-090-091-190500-
...NORTHEAST COLORADO...

CITY           SKY/WX    TMP DP  RH WIND       PRES   REMARKS
GREELEY ARPT   PTCLDY    23  12  63 NW5       30.08R WCI  17
AKRON          MOCLDY    27  19  72 S7        30.09S WCI  19
BURLINGTON     CLEAR     25  20  81 CALM      30.10S
WRAY           PTCLDY    22  20  94 W7        30.11S WCI  13
STERLING       MOCLDY    19  19 100 SW5       30.10S FOG     WCI  13
HOLYOKE        NOT AVBL
FORT MORGAN    MOCLDY    24  18  77 NE7       30.10S WCI  16
$$

COZ086-089-092>099-190500-
...SOUTHEAST COLORADO...

CITY           SKY/WX    TMP DP  RH WIND       PRES   REMARKS
PUEBLO         CLOUDY    30  23  75 NE5       30.11R WCI  25
LA JUNTA       MOCLDY    32  28  85 E6        30.11R WCI  26
LAMAR          CLEAR     27  26  96 CALM      30.11R FOG
SPRINGFIELD      N/A     23  22  96 W3        30.11R
$$


USA.gov is the U.S. government's official web portal to all federal, state and local government web resources and services.